Location: Lake Almanor
(40.2485°N, 121.1442°W)
Time: 10:50:21
(UTC-08:00)

STARLINK-1087 - Pass Details

Date: 04 February 2020
Orbit: 348 x 351 km, 53.0° (Epoch: 18 February)

Event Time Altitude Azimuth Distance (km) Brightness Sun altitude
Rises 18:23:29 0° 292° (WNW) 2,149 7.7 -11.3°
Maximum altitude 18:27:45 14° 231° (SW) 1,097 6.1 -12.1°
Drops below altitude 10° 18:29:21 10° 197° (SSW) 1,296 5.9 -12.4°
Sets 18:32:00 0° 170° (S) 2,131 6.6 -12.9°
